Location: Ajisawe
(8.4333°N, 4.3833°E)
Time: 06:44:53
(UTC+00:00)

A-11 Canister half - Pass Details

Date: 21 April 2021
Orbit: 1514 x 1685 km, 47.2° (Epoch: 12 May)

Event Time Altitude Azimuth Distance (km) Brightness Sun altitude
Rises 19:34:27 0° 258° (WSW) 4,649 12.5 -25.4°
Reaches altitude 10° 19:38:28 10° 273° (W) 3,670 11.9 -26.3°
Maximum altitude 19:45:01 21° 319° (NW) 2,897 11.0 -27.8°
Drops below altitude 10° 19:51:41 10° 5° (N) 3,721 11.1 -29.4°
Sets 19:55:52 0° 21° (NNE) 4,732 11.6 -30.4°
